Retour au catalogue

COSMOS 2491 DEB

ActifPO
NORAD 47110·DEBRIS·🇷🇺 Russia

Lancé Dec 25, 2013 depuis Plesetsk Cosmodrome

Loading…

Prochains Passages (prochaines 24 heures)

TLE

VieillissantSource: Space-Track

Époque: Sep 6, 2026, 18:48 UTC

1 47110U 13076AF  26249.78351745  .00001016  00000-0  57868-2 0  9997
2 47110  82.4425  81.8131 0094347   5.0405 355.1612 12.58899928301865

Suivez COSMOS 2491 DEB en temps réel avec AllMySat

Download on the App Store